DateTimeUTC,F1_A11,F1_S11,BsB_S11,BsG_S11,BsR_S11,BbsB_S11,BbsG_S11,BbsR_S11,BaB_A11,BaG_A11,BaR_A11,Tu_S11,T_S11,Uu_S11,U_S11,P_S11,T1_A11
2021-04-25T20:00:00Z,00000200,21000000,,,,,,,0000.29,0000.07,0000.64,18.9,26.0,01.2,00.8,0684.7,31.2
2021-04-25T20:01:00Z,00000200,21000000,,,,,,,-000.09,-000.28,-000.37,18.9,26.0,01.2,00.8,0684.7,31.2
2021-04-25T20:02:00Z,00000200,21000000,,,,,,,-000.33,-000.07,-000.02,18.9,26.0,01.2,00.8,0684.7,31.2
2021-04-25T20:03:00Z,00000200,61000000,,,,,,,0000.77,0000.81,0000.68,18.9,26.1,01.2,00.8,0684.8,31.2
2021-04-25T20:04:00Z,00000200,41000000,0002.54,0001.31,0000.54,0000.66,0000.31,0000.11,0000.71,0000.28,0000.22,19.0,25.9,01.4,00.9,0685.7,31.2
2021-04-25T20:05:00Z,00000200,01000000,0001.99,0001.41,0001.00,0000.37,0000.06,0000.24,0000.45,0000.80,0000.62,19.0,25.8,01.4,00.9,0685.8,31.2
2021-04-25T20:06:00Z,00000200,01000000,0002.05,0001.67,0000.90,0000.54,0000.03,0000.27,0000.73,0001.12,0000.43,19.1,25.8,01.5,01.0,0685.8,31.2
2021-04-25T20:07:00Z,00000200,01000000,0002.15,0001.39,0000.97,0000.78,0000.15,0000.15,0001.30,0000.71,0000.66,19.0,25.8,01.5,01.0,0685.8,31.2
2021-04-25T20:08:00Z,00000200,01000000,0001.71,0001.13,0000.94,0000.35,0000.16,0000.25,0000.73,0000.61,0000.77,19.0,25.8,01.5,01.0,0685.8,31.2
2021-04-25T20:09:00Z,00000200,01000000,0001.21,0001.06,0000.62,0000.52,0000.24,0000.17,0001.34,0001.13,0000.90,19.0,25.8,01.6,01.1,0685.7,31.2
2021-04-25T20:10:00Z,00000200,01000000,0002.48,0001.39,0000.98,0000.22,0000.20,0000.26,0000.67,0000.87,0000.69,19.0,25.8,01.8,01.2,0685.7,31.2
2021-04-25T20:11:00Z,00000200,01000000,0001.88,0001.10,0000.92,0000.33,0000.13,0000.32,0001.50,0001.14,0000.41,19.0,25.8,01.9,01.3,0685.7,31.2
2021-04-25T20:12:00Z,00000200,01000000,0001.56,0001.08,0000.95,0000.34,0000.08,0000.10,0000.76,0000.43,0000.62,19.0,25.7,01.9,01.3,0685.7,31.2
2021-04-25T20:13:00Z,00000200,01000000,0001.91,0001.19,0000.75,0000.41,0000.18,0000.03,0000.84,0000.87,0000.62,19.0,25.7,02.1,01.4,0685.7,31.2
2021-04-25T20:14:00Z,00000200,01000000,0002.20,0001.20,0000.87,0000.66,0000.29,0000.13,0000.41,0000.42,0000.38,19.0,25.7,02.0,01.3,0685.7,31.2
2021-04-25T20:15:00Z,00000200,01000000,0001.45,0001.30,0001.11,-000.03,-000.11,-000.12,0000.47,0000.76,0000.51,19.0,25.7,01.9,01.3,0685.7,31.2
2021-04-25T20:16:00Z,00000200,01000000,0001.75,0001.38,0001.19,0000.50,0000.09,0000.30,0000.53,0000.22,0000.27,19.0,25.7,01.8,01.2,0685.7,31.2
2021-04-25T20:17:00Z,00000200,01000000,0002.20,0001.41,0000.96,-000.01,0000.14,0000.14,0000.38,0000.55,0000.37,19.0,25.7,01.9,01.3,0685.8,31.2
2021-04-25T20:18:00Z,00000200,01000000,0001.32,0001.35,0000.66,0000.31,0000.27,0000.22,0000.68,0000.33,-000.07,19.0,25.7,01.8,01.2,0685.8,31.2
2021-04-25T20:19:00Z,00000200,01000000,0002.02,0001.45,0000.93,0000.44,0000.24,0000.02,0000.24,0000.36,0000.57,19.0,25.7,01.6,01.1,0685.8,31.2
2021-04-25T20:20:00Z,00000200,01000000,0002.43,0001.33,0000.94,0000.12,0000.46,0000.15,0000.68,0000.59,-000.01,19.0,25.7,01.6,01.1,0685.8,31.2
2021-04-25T20:21:00Z,00000200,01000000,0001.92,0001.39,0000.94,-000.18,0000.27,0000.12,0000.61,0000.68,0000.91,19.0,25.7,01.5,01.0,0685.8,31.2
2021-04-25T20:22:00Z,00000200,01000000,0001.86,0001.28,0001.04,0000.27,0000.10,0000.18,0000.64,0000.29,0000.37,19.0,25.7,01.6,01.0,0685.8,31.2
2021-04-25T20:23:00Z,00000200,01000000,0001.38,0001.52,0001.10,0000.39,0000.20,0000.20,0000.62,0000.51,0000.30,19.0,25.7,01.5,01.0,0685.8,31.2
2021-04-25T20:24:00Z,00000200,01000000,0001.35,0001.21,0000.95,0000.02,0000.08,0000.48,0000.52,0000.90,0000.30,19.0,25.7,01.4,00.9,0685.8,31.2
2021-04-25T20:25:00Z,00000200,01000000,0001.87,0001.00,0000.89,0000.30,0000.43,0000.43,0001.10,0000.91,0001.21,19.0,25.7,01.5,01.0,0685.7,31.2
2021-04-25T20:26:00Z,00000200,01000000,0001.93,0001.36,0000.69,0000.52,0000.33,0000.27,0001.25,0000.73,0000.36,19.0,25.7,01.6,01.1,0685.7,31.2
2021-04-25T20:27:00Z,00000200,01000000,0002.25,0001.45,0000.92,0000.56,0000.17,0000.42,0000.84,0000.85,0000.55,19.0,25.7,01.7,01.1,0685.7,31.2
2021-04-25T20:28:00Z,00000200,01000000,0001.94,0000.99,0000.78,-000.26,-000.01,0000.10,0000.09,0000.56,0000.41,19.0,25.7,01.7,01.1,0685.7,31.2
2021-04-25T20:29:00Z,00000200,01000000,0002.10,0001.75,0001.00,0000.45,0000.29,0000.39,0000.60,0000.01,0000.23,19.0,25.7,01.7,01.1,0685.8,31.2
2021-04-25T20:30:00Z,00000200,01000000,0001.78,0001.26,0001.08,0000.57,-000.04,0000.26,0000.72,0000.67,0000.55,19.0,25.7,01.6,01.1,0685.8,31.2
2021-04-25T20:31:00Z,00000200,01000000,0001.97,0001.08,0000.69,0000.70,0000.15,0000.41,0000.91,0000.98,0000.70,19.0,25.6,01.7,01.1,0685.7,31.2
2021-04-25T20:32:00Z,00000200,01000000,0001.88,0001.27,0000.57,0000.20,0000.11,0000.16,0000.93,0000.76,0001.02,19.0,25.6,01.8,01.2,0685.7,31.2
2021-04-25T20:33:00Z,00000200,01000000,0001.77,0001.19,0000.98,0000.58,-000.12,0000.43,0000.60,0000.47,0000.05,19.0,25.6,01.8,01.2,0685.7,31.2
2021-04-25T20:34:00Z,00000200,01000000,0001.61,0001.01,0000.90,0000.08,-000.04,0000.29,0000.24,0000.41,0000.14,19.0,25.7,01.7,01.1,0685.7,31.2
2021-04-25T20:35:00Z,00000200,01000000,0001.83,0001.23,0000.87,0000.54,0000.17,0000.03,0001.09,0000.86,0000.81,19.0,25.6,01.7,01.1,0685.8,31.2
2021-04-25T20:36:00Z,00000200,01000000,0002.12,0001.25,0000.93,0000.66,-000.05,0000.14,-000.04,0000.41,0000.02,18.9,25.6,01.6,01.1,0685.8,31.2
2021-04-25T20:37:00Z,00000200,01000000,0001.59,0001.21,0000.65,0000.41,0000.21,0000.11,0000.41,-000.06,-000.03,18.9,25.7,01.4,00.9,0685.8,31.2
2021-04-25T20:38:00Z,00000200,01000000,0001.71,0001.36,0000.80,0000.36,0000.27,0000.14,-000.15,0000.04,-000.07,18.9,25.6,01.2,00.8,0685.8,31.2
2021-04-25T20:39:00Z,00000200,01000000,0001.88,0001.13,0000.95,0000.73,0000.06,0000.32,0001.19,0000.38,0000.56,18.9,25.6,01.1,00.8,0685.8,31.2
2021-04-25T20:40:00Z,00000200,01000000,0001.27,0001.31,0001.03,0000.08,-000.14,0000.38,0000.93,0001.44,0000.95,18.9,25.6,01.2,00.8,0685.8,31.2
2021-04-25T20:41:00Z,00000200,01000000,0001.93,0001.23,0000.83,0000.71,0000.28,-000.02,0001.21,0000.78,0000.64,18.9,25.6,01.4,00.9,0685.8,31.2
2021-04-25T20:42:00Z,00000200,01000000,0002.44,0000.98,0000.64,0000.15,-000.01,0000.18,0001.46,0001.43,0001.05,18.9,25.6,01.5,01.0,0685.8,31.2
2021-04-25T20:43:00Z,00000200,01000000,0001.78,0001.28,0000.68,0000.67,0000.29,0000.10,0000.82,0000.51,0000.43,18.9,25.6,01.7,01.1,0685.8,31.2
2021-04-25T20:44:00Z,00000200,01000000,0001.49,0001.23,0000.90,0000.58,0000.15,0000.33,0000.32,0000.95,0000.64,18.9,25.6,01.7,01.1,0685.8,31.2
2021-04-25T20:45:00Z,00000200,01000000,0001.90,0001.25,0000.83,0000.48,0000.45,-000.13,0000.73,0000.26,0000.27,18.9,25.6,01.7,01.1,0685.8,31.2
2021-04-25T20:46:00Z,00000200,01000000,0002.23,0001.29,0000.74,0000.20,0000.01,0000.03,0000.91,0000.69,0000.48,18.9,25.6,01.7,01.1,0685.8,31.2
2021-04-25T20:47:00Z,00000200,01000000,0001.92,0001.12,0001.25,0000.37,-000.06,0000.41,0000.12,0000.30,0000.31,18.9,25.6,01.6,01.1,0685.8,31.2
2021-04-25T20:48:00Z,00000200,01000000,0001.99,0001.24,0000.65,0000.14,0000.06,0000.04,0001.14,0000.84,0001.14,18.9,25.6,01.6,01.1,0685.8,31.2
2021-04-25T20:49:00Z,00000200,01000000,0001.91,0001.15,0000.99,0000.73,0000.09,0000.11,0000.19,0000.44,-000.30,18.9,25.6,01.6,01.1,0685.8,31.2
2021-04-25T20:50:00Z,00000200,01000000,0001.25,0001.29,0000.97,0000.60,0000.04,0000.49,0000.16,0000.34,0000.22,18.9,25.6,01.6,01.1,0685.8,31.2
2021-04-25T20:51:00Z,00000200,01000000,0001.59,0000.92,0000.84,0000.62,0000.21,0000.22,0001.03,0000.47,0000.50,18.9,25.6,01.5,01.0,0685.8,31.2
2021-04-25T20:52:00Z,00000200,01000000,0002.06,0000.76,0001.00,0000.40,0000.17,0000.32,0000.89,0000.79,0000.72,18.9,25.6,01.5,01.0,0685.8,31.2
2021-04-25T20:53:00Z,00000200,01000000,0001.66,0001.46,0001.07,0000.22,0000.22,0000.08,0001.28,0001.21,0000.94,18.9,25.6,01.6,01.1,0685.8,31.2
2021-04-25T20:54:00Z,00000200,01000000,0001.58,0001.23,0000.71,0000.23,0000.17,0000.29,0000.79,0001.00,0000.68,18.9,25.6,01.8,01.2,0685.8,31.2
2021-04-25T20:55:00Z,00000200,01000000,0001.97,0001.20,0000.78,0000.36,0000.17,0000.19,0000.79,0000.66,0000.14,18.9,25.6,01.8,01.2,0685.8,31.2
2021-04-25T20:56:00Z,00000200,01000000,0001.72,0000.92,0001.09,0000.59,0000.23,0000.33,0000.85,0000.81,0000.67,18.8,25.6,01.9,01.3,0685.8,31.2
2021-04-25T20:57:00Z,00000200,40000000,,,,,,,0000.03,0000.04,-000.02,18.9,25.6,02.3,01.5,0685.8,31.2
2021-04-25T20:58:00Z,00000200,60000000,,,,,,,0000.12,-000.29,-000.07,18.6,25.7,01.7,01.1,0684.8,31.2
2021-04-25T20:59:00Z,00000200,20000000,,,,,,,0000.06,0000.03,0000.40,18.6,25.8,01.7,01.1,0684.8,31.2
